Hourly Data Report for March 15, 2004

SHERBROOKE A
QUEBEC

45°26'00.000" N
71°41'00.000" W
241.40 m
7028124
71610
YSC

Download Data

Hourly Data (March 2004)
Hourly Data Report for March 15, 2004
TIME
LST
Temp Definition
°C
Dew Point Definition
°C
Rel Hum Definition
%
Precip. Amount Definition
mm

Wind Dir Definition
10's deg

Wind Spd Definition
km/h
Visibility Definition
km
Stn Press Definition
kPa
Hmdx Definition


Wind Chill Definition


Weather Definition


00:00 1.7 -7.5 50   19 19 15.0 98.26     Snow
01:00 1.1 -6.9 55   19 19 9.7 98.23     Snow
02:00 1.2 -7.3 53   20 17 15.0 98.11     Snow
03:00 -0.2 -5.6 67   20 22 3.1 98.10   -6 Snow
04:00 0.4 -6.1 62   20 15 15.0 98.06      
05:00 0.1 -5.0 69   21 15 2.9 98.10     Snow
06:00 0.8 -6.1 60   24 22 15.0 98.17     Snow
07:00 0.0 -6.5 62   25 19 15.0 98.24   -5 Snow
08:00 0.2 -7.4 57   23 24 19.3 98.29     Snow
09:00 0.9 -8.5 49   25 28 24.1 98.30     Cloudy
10:00 1.1 -8.9 47   24 24 24.1 98.28     Cloudy
11:00 1.1 -8.2 50   25 20 24.1 98.30     Snow Showers
12:00 1.0 -7.7 52   26 28 4.8 98.36     Snow Showers,Blowing Snow
13:00 1.3 -8.1 50   26 30 24.1 98.39     Snow Showers
14:00 1.7 -8.0 48   25 30 24.1 98.42     Cloudy
15:00 1.1 -7.3 53   27 33 16.1 98.52     Snow Showers
16:00 1.4 -7.7 51   25 24 19.3 98.58     Snow Showers
17:00 1.4 -8.3 48   25 19 19.3 98.64     Mostly Cloudy
18:00 1.1 -7.7 52   27 32 15.0 98.74      
19:00 -0.1 -7.1 59   25 20 15.0 98.85   -5 Snow
20:00 -1.4 -6.4 69   30 13 0.8 98.95   -6 Snow
21:00 -2.1 -10.4 53   29 26 15.0 99.08   -9  
22:00 -3.8 -12.9 49   30 22 15.0 99.21   -10  
23:00 -5.4 -14.5 49   30 19 15.0 99.31   -12  

Notes on Data Quality.

Legend

  • E = Estimated
  • M = Missing
  • NA = Not Available*
  • [empty] = Indicates an unobserved value
Date modified: